FW8739 Weather Reports


Display with metric or nautical units.
time (UTC)temp
F
wind
direction
speed
MPH
gust
MPH
rain 1hr
in
rain 24hr
in
rain mn
in
humidity
%
barometer
mb
20260906144004 87 178 0.0 0.0 0.00 0.00 0.00 81 1017.1
20260906143459 85 181 0.0 0.0 0.00 0.00 0.00 86 1017.0
20260906142955 83 183 0.0 0.0 0.00 0.00 0.00 88 1017.1
20260906142449 80 170 0.0 0.0 0.00 0.00 0.00 93 1017.2
20260906141944 77 180 0.0 0.0 0.00 0.00 0.00 97 1017.0
20260906141443 76 179 0.0 0.0 0.00 0.00 0.00 99 1016.9
20260906140938 75 182 0.0 0.0 0.00 0.00 0.00 99 1016.8
20260906140432 74 180 0.0 0.0 0.00 0.00 0.00 99 1017.0
20260906135925 74 185 0.0 0.0 0.00 0.00 0.00 99 1017.0
20260906135424 74 185 0.0 0.0 0.00 0.00 0.00 99 1016.9
20260906134920 73 187 0.0 0.0 0.00 0.00 0.00 99 1017.0
20260906134415 73 184 0.0 0.0 0.00 0.00 0.00 99 1017.0
20260906133910 73 184 0.0 0.0 0.00 0.00 0.00 99 1016.9
20260906133406 73 183 0.0 0.0 0.00 0.00 0.00 99 1016.8
20260906132901 72 184 0.0 0.0 0.00 0.00 0.00 99 1017.0
20260906132356 72 186 0.0 0.0 0.00 0.00 0.00 99 1016.9
20260906131852 71 184 0.0 0.0 0.00 0.00 0.00 99 1016.9
20260906131347 71 184 0.0 0.0 0.00 0.00 0.00 99 1016.9
20260906130843 71 184 0.0 0.0 0.00 0.00 0.00 99 1016.8
20260906130342 70 184 0.0 0.0 0.00 0.00 0.00 99 1016.8
20260906125841 70 184 0.0 0.0 0.00 0.00 0.00 99 1016.6
20260906125338 70 184 0.0 0.0 0.00 0.00 0.00 99 1016.7
20260906124833 70 184 0.0 0.0 0.00 0.00 0.00 99 1016.6
20260906124329 69 184 0.0 0.0 0.00 0.00 0.00 99 1016.7
20260906123829 69 184 0.0 0.0 0.00 0.00 0.00 99 1016.3
20260906123324 69 184 0.0 0.0 0.00 0.00 0.00 99 1016.5
20260906122823 69 184 0.0 0.0 0.00 0.00 0.00 99 1016.5
20260906122318 68 184 0.0 0.0 0.00 0.00 0.00 99 1016.5
20260906121815 68 184 0.0 0.0 0.00 0.00 0.00 99 1016.4
20260906121311 68 185 0.0 0.0 0.00 0.00 0.00 99 1016.3
20260906120807 68 185 0.0 0.0 0.00 0.00 0.00 99 1016.4
20260906120303 68 180 0.0 0.0 0.00 0.00 0.00 99 1016.5
20260906115758 68 183 0.0 0.0 0.00 0.00 0.00 99 1016.1
20260906115254 68 183 0.0 0.0 0.00 0.00 0.00 99 1016.2
20260906114753 68 183 0.0 0.0 0.00 0.00 0.00 99 1016.0
20260906114248 68 183 0.0 0.0 0.00 0.00 0.00 99 1016.0
20260906113744 68 183 0.0 0.0 0.00 0.00 0.00 99 1015.9
20260906113243 68 183 0.0 0.0 0.00 0.00 0.00 99 1016.1
20260906112743 68 183 0.0 0.0 0.00 0.00 0.00 99 1016.2
20260906112239 68 183 0.0 0.0 0.00 0.00 0.00 99 1016.2
20260906111739 68 183 0.0 0.0 0.00 0.00 0.00 99 1016.1
20260906111233 68 183 0.0 0.0 0.00 0.00 0.00 99 1016.0
20260906110728 68 183 0.0 0.0 0.00 0.00 0.00 99 1016.2
20260906110224 68 183 0.0 0.0 0.00 0.00 0.00 99 1016.0
20260906105723 68 183 0.0 0.0 0.00 0.00 0.00 99 1016.1
20260906105219 68 183 0.0 0.0 0.00 0.00 0.00 99 1015.9
20260906104719 68 183 0.0 0.0 0.00 0.00 0.00 99 1016.0
20260906104218 69 183 0.0 0.0 0.00 0.00 0.00 99 1015.9
20260906103716 69 183 0.0 0.0 0.00 0.00 0.00 99 1015.9
20260906103211 69 183 0.0 0.0 0.00 0.00 0.00 99 1016.0
20260906102706 69 183 0.0 0.0 0.00 0.00 0.00 99 1015.8
20260906102205 69 183 0.0 0.0 0.00 0.00 0.00 99 1015.7
20260906101700 69 183 0.0 0.0 0.00 0.00 0.00 99 1015.5
20260906101155 69 183 0.0 0.0 0.00 0.00 0.00 99 1015.4
20260906100651 69 183 0.0 0.0 0.00 0.00 0.00 99 1015.6
20260906100151 69 183 0.0 0.0 0.00 0.00 0.00 99 1015.4
20260906095646 69 182 0.0 0.0 0.00 0.00 0.00 99 1015.5
20260906095141 70 179 0.0 0.0 0.00 0.00 0.00 99 1015.5
20260906094640 69 186 0.0 0.0 0.00 0.00 0.00 99 1015.5
20260906094136 69 183 0.0 0.0 0.00 0.00 0.00 99 1015.4
20260906093632 70 183 0.0 0.0 0.00 0.00 0.00 99 1015.3
20260906093132 70 183 0.0 0.0 0.00 0.00 0.00 99 1015.5
20260906092627 70 183 0.0 0.0 0.00 0.00 0.00 99 1015.3
20260906092122 70 186 0.0 0.0 0.00 0.00 0.00 99 1015.4
20260906091618 70 186 0.0 0.0 0.00 0.00 0.00 99 1015.1
20260906091114 70 184 0.0 0.0 0.00 0.00 0.00 99 1015.3
20260906090615 70 184 0.0 0.0 0.00 0.00 0.00 99 1015.5
20260906090114 70 184 0.0 0.0 0.00 0.00 0.00 99 1015.5
20260906085614 70 184 0.0 0.0 0.00 0.00 0.00 99 1015.3
20260906085108 70 184 0.0 0.0 0.00 0.00 0.00 99 1015.2
20260906084603 70 180 0.0 0.0 0.00 0.00 0.00 99 1015.2
20260906084102 70 180 0.0 0.0 0.00 0.00 0.00 99 1015.3
20260906083557 70 179 0.0 0.0 0.00 0.00 0.00 99 1015.3
20260906083057 70 183 0.0 0.0 0.00 0.00 0.00 99 1015.1
20260906082553 70 183 0.0 0.0 0.00 0.00 0.00 99 1015.3
20260906082048 70 183 0.0 0.0 0.00 0.00 0.00 99 1015.2
20260906081544 70 184 0.0 0.0 0.00 0.00 0.00 99 1015.1
20260906081039 70 184 0.0 0.0 0.00 0.00 0.00 99 1015.1
20260906080536 71 184 0.0 0.0 0.00 0.00 0.00 99 1015.0
20260906080031 70 185 0.0 0.0 0.00 0.00 0.00 99 1015.0
20260906075525 71 184 0.0 0.0 0.00 0.00 0.00 99 1015.2
20260906075020 70 184 0.0 0.0 0.00 0.00 0.00 99 1015.0
20260906074515 71 186 0.0 0.0 0.00 0.00 0.00 99 1015.0
20260906074013 71 180 0.0 0.0 0.00 0.00 0.00 99 1015.0
20260906073508 71 180 0.0 0.0 0.00 0.00 0.00 99 1015.1
20260906073005 71 180 0.0 0.0 0.00 0.00 0.00 99 1015.2
20260906072459 71 180 0.0 0.0 0.00 0.00 0.00 99 1015.1
20260906071955 71 180 0.0 0.0 0.00 0.00 0.00 99 1015.3
20260906071451 71 180 0.0 0.0 0.00 0.00 0.00 99 1015.4
20260906070946 71 179 0.0 0.0 0.00 0.00 0.00 99 1015.3
20260906070443 71 184 0.0 0.0 0.00 0.00 0.00 99 1015.2
20260906065938 71 184 0.0 0.0 0.00 0.00 0.00 99 1015.3
20260906065438 71 184 0.0 0.0 0.00 0.00 0.00 99 1015.4
20260906064933 71 184 0.0 0.0 0.00 0.00 0.00 99 1015.4
20260906064429 71 184 0.0 0.0 0.00 0.00 0.00 99 1015.6
20260906063924 71 184 0.0 0.0 0.00 0.00 0.00 99 1015.4
20260906063419 72 184 0.0 0.0 0.00 0.00 0.00 99 1015.4
20260906062914 72 184 0.0 0.0 0.00 0.00 0.00 99 1015.4
20260906062409 72 185 0.0 0.0 0.00 0.00 0.00 99 1015.6
20260906061904 72 185 0.0 0.0 0.00 0.00 0.00 99 1015.7
20260906061400 72 183 0.0 0.0 0.00 0.00 0.00 99 1015.6
20260906060854 72 183 0.0 0.0 0.00 0.00 0.00 99 1015.5
20260906060352 72 183 0.0 0.0 0.00 0.00 0.00 99 1015.4
20260906055848 72 183 0.0 0.0 0.00 0.00 0.00 99 1015.7
20260906055343 72 180 0.0 0.0 0.00 0.00 0.00 99 1015.5
20260906054838 72 180 0.0 0.0 0.00 0.00 0.00 99 1015.6
20260906054333 72 180 0.0 0.0 0.00 0.00 0.00 99 1015.5
20260906053830 72 180 0.0 0.0 0.00 0.00 0.00 99 1015.5
20260906053325 72 180 0.0 0.0 0.00 0.00 0.00 99 1015.4
20260906052820 72 180 0.0 0.0 0.00 0.00 0.00 99 1015.2
20260906052317 72 180 0.0 0.0 0.00 0.00 0.00 99 1015.4
20260906051814 73 180 0.0 0.0 0.00 0.00 0.00 99 1015.4
20260906051313 72 180 0.0 0.0 0.00 0.00 0.00 99 1015.5
20260906050808 73 180 0.0 0.0 0.00 0.00 0.00 99 1015.3
20260906050303 73 180 0.0 0.0 0.00 0.00 0.00 99 1015.3
20260906045802 73 180 0.0 0.0 0.00 0.00 0.00 99 1015.2
20260906045257 73 180 0.0 0.0 0.00 0.00 0.00 99 1015.5
20260906044753 73 180 0.0 0.0 0.00 0.00 0.00 99 1015.5
20260906044248 73 180 0.0 0.0 0.00 0.00 0.00 99 1015.1
20260906043744 73 180 0.0 0.0 0.00 0.00 0.00 99 1015.4
20260906043240 73 180 0.0 0.0 0.00 0.00 0.00 99 1015.5
20260906042739 73 180 0.0 0.0 0.00 0.00 0.00 99 1015.4
20260906042238 73 180 0.0 0.0 0.00 0.00 0.00 99 1015.2
20260906041734 73 180 0.0 0.0 0.00 0.00 0.00 99 1015.3
20260906041229 73 180 0.0 0.0 0.00 0.00 0.00 99 1015.4
20260906040725 73 180 0.0 0.0 0.00 0.00 0.00 99 1015.3
20260906040220 73 180 0.0 0.0 0.00 0.00 0.00 99 1015.2
20260906035715 73 180 0.0 0.0 0.00 0.00 0.00 99 1015.5
20260906035211 73 180 0.0 0.0 0.00 0.00 0.00 99 1015.5
20260906034710 73 180 0.0 0.0 0.00 0.00 0.00 99 1015.6
20260906034205 74 180 0.0 0.0 0.00 0.00 0.00 99 1015.3
20260906033701 74 180 0.0 0.0 0.00 0.00 0.00 99 1015.4
20260906033201 74 180 0.0 0.0 0.00 0.00 0.00 99 1015.5
20260906032657 74 183 0.0 0.0 0.00 0.00 0.00 99 1015.4
20260906032152 74 184 0.0 0.0 0.00 0.00 0.00 99 1015.2
20260906031647 74 184 0.0 0.0 0.00 0.00 0.00 99 1015.4
20260906031143 74 184 0.0 0.0 0.00 0.00 0.00 99 1015.2
20260906030642 75 185 0.0 0.0 0.00 0.00 0.00 99 1015.0
20260906030138 74 182 0.0 0.0 0.00 0.00 0.00 99 1015.0
20260906025637 74 182 0.0 0.0 0.00 0.00 0.00 99 1015.1
20260906025136 74 184 0.0 0.0 0.00 0.00 0.00 99 1015.0
20260906024631 75 184 0.0 0.0 0.00 0.00 0.00 99 1015.1
20260906024125 75 179 0.0 0.0 0.00 0.00 0.00 99 1015.2
20260906023621 75 185 0.0 0.0 0.00 0.00 0.00 99 1015.1
20260906023121 75 183 0.0 0.0 0.00 0.00 0.00 99 1015.1
20260906022616 75 183 0.0 0.0 0.00 0.00 0.00 99 1015.0
20260906022112 75 183 0.0 0.0 0.00 0.00 0.00 99 1014.8
20260906021608 75 180 0.0 0.0 0.00 0.00 0.00 99 1014.7
20260906021106 75 180 0.0 0.0 0.00 0.00 0.00 99 1014.7
20260906020605 76 182 0.0 0.0 0.00 0.00 0.00 99 1014.8
20260906020100 76 182 0.0 0.0 0.00 0.00 0.00 99 1014.5
20260906015554 76 181 0.0 0.0 0.00 0.00 0.00 99 1014.4
20260906015053 76 183 0.0 0.0 0.00 0.00 0.00 99 1014.3
20260906014548 76 183 0.0 0.0 0.00 0.00 0.00 99 1014.1
20260906014044 76 180 0.0 0.0 0.00 0.00 0.00 98 1014.1
20260906013539 77 180 0.0 0.0 0.00 0.00 0.00 98 1013.9
20260906013035 77 180 0.0 0.0 0.00 0.00 0.00 97 1014.0
20260906012530 77 181 0.0 0.0 0.00 0.00 0.00 97 1014.1
20260906012029 77 184 0.0 0.0 0.00 0.00 0.00 98 1013.9
20260906011525 77 174 0.0 0.0 0.00 0.00 0.00 97 1013.9
20260906011025 77 183 0.0 0.0 0.00 0.00 0.00 97 1013.8
20260906010520 77 182 0.0 0.0 0.00 0.00 0.00 96 1013.8
20260906010017 78 186 0.0 0.0 0.00 0.00 0.00 96 1013.8
20260906005516 78 182 0.0 0.0 0.00 0.00 0.00 95 1013.7
20260906005015 78 182 0.0 0.0 0.00 0.00 0.00 95 1013.5
20260906004509 79 179 0.0 0.0 0.00 0.00 0.00 94 1013.8
20260906004004 79 184 0.0 0.0 0.00 0.00 0.00 93 1013.4
20260906003459 79 184 0.0 0.0 0.00 0.00 0.00 93 1013.2
20260906002954 80 184 0.0 0.0 0.00 0.00 0.00 92 1013.4
20260906002449 80 184 0.0 0.0 0.00 0.00 0.00 91 1013.4
20260906001944 80 184 0.0 0.0 0.00 0.00 0.00 91 1013.3
20260906001440 81 184 0.0 0.0 0.00 0.00 0.00 90 1013.5
20260906000934 82 185 0.0 0.0 0.00 0.00 0.00 89 1013.8
20260906000433 82 184 0.0 0.0 0.00 0.00 0.00 87 1013.5
20260905235925 83 184 0.0 0.0 0.00 0.00 0.00 85 1013.7
20260905235424 83 185 0.0 0.0 0.00 0.00 0.00 84 1013.5
20260905234919 84 184 0.0 0.0 0.00 0.00 0.00 82 1013.8
20260905234415 84 184 0.0 0.0 0.00 0.00 0.00 80 1013.8
20260905233909 85 184 0.0 0.0 0.00 0.00 0.00 78 1013.7
20260905233405 86 184 0.0 0.0 0.00 0.00 0.00 77 1013.8
20260905232903 87 186 0.0 0.0 0.00 0.00 0.00 76 1013.9
20260905232400 87 185 0.0 0.0 0.00 0.00 0.00 75 1013.9
20260905231855 87 185 0.0 0.0 0.00 0.00 0.00 75 1013.8
20260905231350 86 184 0.0 0.0 0.00 0.00 0.00 76 1013.8
20260905230847 86 185 0.0 0.0 0.00 0.00 0.00 78 1013.7
20260905230344 86 187 0.0 0.0 0.00 0.00 0.00 77 1013.7
20260905225844 86 182 0.0 0.0 0.00 0.00 0.00 78 1013.5
20260905225339 86 182 0.0 0.0 0.00 0.00 0.00 78 1013.8
20260905224834 87 181 0.0 0.0 0.00 0.00 0.00 76 1013.5
20260905224329 88 185 0.0 0.0 0.00 0.00 0.00 73 1013.6
20260905223824 89 189 0.0 0.0 0.00 0.00 0.00 72 1013.6
20260905223322 91 192 0.0 1.0 0.00 0.00 0.00 69 1013.5
20260905222817 91 188 0.0 0.0 0.00 0.00 0.00 67 1013.7
20260905222316 91 183 0.0 0.0 0.00 0.00 0.00 70 1013.6
20260905221812 90 183 0.0 0.0 0.00 0.00 0.00 69 1013.7
20260905221309 90 183 0.0 0.0 0.00 0.00 0.00 69 1013.8
20260905220804 89 183 0.0 0.0 0.00 0.00 0.00 71 1013.7
20260905220300 89 181 0.0 0.0 0.00 0.00 0.00 71 1014.0
20260905215759 91 181 0.0 0.0 0.00 0.00 0.00 70 1013.7
20260905215255 92 181 0.0 0.0 0.00 0.00 0.00 68 1013.7
20260905214750 94 182 0.0 0.0 0.00 0.00 0.00 65 1013.8
20260905214246 97 184 0.0 0.0 0.00 0.00 0.00 59 1013.8
20260905213741 98 184 0.0 0.0 0.00 0.00 0.00 55 1013.8
20260905213237 94 183 0.0 0.0 0.00 0.00 0.00 57 1013.8
20260905212732 93 173 0.0 0.0 0.00 0.00 0.00 61 1013.9
20260905212232 92 173 0.0 0.0 0.00 0.00 0.00 61 1013.8
20260905211731 92 176 0.0 0.0 0.00 0.00 0.00 63 1013.9
20260905211226 92 171 0.0 0.0 0.00 0.00 0.00 59 1014.0
20260905210723 92 171 0.0 0.0 0.00 0.00 0.00 58 1013.9
20260905210223 93 173 0.0 0.0 0.00 0.00 0.00 58 1014.1
20260905205722 94 172 0.0 0.0 0.00 0.00 0.00 56 1014.1
20260905205217 96 167 0.0 0.0 0.00 0.00 0.00 58 1013.9
20260905204716 97 175 0.0 0.0 0.00 0.00 0.00 57 1014.1
20260905204212 102 191 0.0 0.0 0.00 0.00 0.00 49 1014.3
20260905203712 102 161 0.0 0.0 0.00 0.00 0.00 49 1014.5
20260905203208 102 186 0.0 0.0 0.00 0.00 0.00 48 1014.5
20260905202703 104 180 0.0 0.0 0.00 0.00 0.00 44 1014.9
20260905202158 103 193 0.0 0.0 0.00 0.00 0.00 45 1014.5
20260905201654 104 92 0.0 0.0 0.00 0.00 0.00 45 1014.8
20260905201153 105 169 1.0 2.0 0.00 0.00 0.00 45 1014.7
20260905200648 104 243 0.0 1.0 0.00 0.00 0.00 45 1014.7
20260905200144 104 124 0.0 0.0 0.00 0.00 0.00 44 1014.9
20260905195642 103 183 0.0 0.0 0.00 0.00 0.00 46 1014.8
20260905195137 103 196 0.0 0.0 0.00 0.00 0.00 45 1014.9
20260905194632 104 199 0.0 0.0 0.00 0.00 0.00 47 1015.1
20260905194131 102 193 0.0 0.0 0.00 0.00 0.00 46 1015.0
20260905193626 97 187 0.0 0.0 0.00 0.00 0.00 59 1015.3
20260905193121 97 178 0.0 0.0 0.00 0.00 0.00 60 1015.0
20260905192617 96 192 0.0 0.0 0.00 0.00 0.00 58 1015.2
20260905192113 94 193 0.0 0.0 0.00 0.00 0.00 64 1015.2
20260905191612 93 193 0.0 0.0 0.00 0.00 0.00 69 1015.2
20260905191111 92 193 0.0 0.0 0.00 0.00 0.00 69 1015.2
20260905190609 92 193 0.0 0.0 0.00 0.00 0.00 66 1015.5
20260905190108 91 193 0.0 0.0 0.00 0.00 0.00 64 1015.4
20260905185607 91 177 0.0 0.0 0.00 0.00 0.00 64 1015.7
20260905185102 91 185 0.0 0.0 0.00 0.00 0.00 62 1015.6
20260905184557 91 189 0.0 0.0 0.00 0.00 0.00 64 1015.5
20260905184056 91 182 0.0 0.0 0.00 0.00 0.00 61 1015.9
20260905183555 93 184 0.0 0.0 0.00 0.00 0.00 59 1015.7
20260905183051 96 172 0.0 0.0 0.00 0.00 0.00 52 1015.7
20260905182551 98 175 0.0 0.0 0.00 0.00 0.00 50 1015.8
20260905182051 100 277 1.0 2.0 0.00 0.00 0.00 43 1015.8
20260905181550 103 190 0.0 0.0 0.00 0.00 0.00 47 1015.6
20260905181044 105 200 0.0 0.0 0.00 0.00 0.00 39 1015.7
20260905180539 105 185 0.0 0.0 0.00 0.00 0.00 43 1015.6
20260905180035 104 180 0.0 0.0 0.00 0.00 0.00 43 1015.8
20260905175533 104 184 0.0 0.0 0.00 0.00 0.00 41 1015.5
20260905175030 104 194 0.0 0.0 0.00 0.00 0.00 43 1015.9
20260905174525 103 195 0.0 0.0 0.00 0.00 0.00 42 1015.9
20260905174020 103 175 0.0 0.0 0.00 0.00 0.00 44 1015.9
20260905173517 103 187 0.0 0.0 0.00 0.00 0.00 46 1015.9
20260905173012 101 260 0.0 0.0 0.00 0.00 0.00 46 1016.2
20260905172510 103 169 0.0 0.0 0.00 0.00 0.00 46 1016.4
20260905172006 101 198 0.0 0.0 0.00 0.00 0.00 50 1016.6
20260905171502 102 198 0.0 0.0 0.00 0.00 0.00 48 1016.7
20260905170958 101 198 0.0 0.0 0.00 0.00 0.00 44 1016.2
20260905170454 101 192 0.0 0.0 0.00 0.00 0.00 47 1016.5
20260905165948 100 190 0.0 0.0 0.00 0.00 0.00 48 1016.4
20260905165443 100 190 0.0 0.0 0.00 0.00 0.00 47 1016.6
20260905164938 99 205 0.0 0.0 0.00 0.00 0.00 49 1016.7
20260905164432 101 202 0.0 0.0 0.00 0.00 0.00 49 1016.7
20260905163927 101 174 0.0 0.0 0.00 0.00 0.00 49 1016.8
20260905163424 100 177 0.0 0.0 0.00 0.00 0.00 48 1016.7
20260905162919 100 194 0.0 0.0 0.00 0.00 0.00 49 1016.8
20260905162414 99 191 0.0 0.0 0.00 0.00 0.00 48 1016.8
20260905161909 98 160 0.0 0.0 0.00 0.00 0.00 55 1016.8
20260905161408 96 196 0.0 1.0 0.00 0.00 0.00 55 1016.9
20260905160906 96 168 0.0 0.0 0.00 0.00 0.00 55 1016.9
20260905160400 97 182 0.0 1.0 0.00 0.00 0.00 55 1017.0
20260905155855 95 185 0.0 0.0 0.00 0.00 0.00 63 1017.0
20260905155349 95 96 1.0 2.0 0.00 0.00 0.00 57 1016.9
20260905154848 96 201 0.0 0.0 0.00 0.00 0.00 59 1017.0
20260905154344 95 190 0.0 0.0 0.00 0.00 0.00 57 1016.8
20260905153839 95 189 0.0 0.0 0.00 0.00 0.00 58 1017.0
20260905153336 95 186 0.0 0.0 0.00 0.00 0.00 65 1016.8
20260905152835 95 195 0.0 0.0 0.00 0.00 0.00 63 1016.9
20260905152334 93 176 0.0 0.0 0.00 0.00 0.00 64 1016.9
20260905151829 92 184 0.0 0.0 0.00 0.00 0.00 66 1017.1
20260905151325 93 193 0.0 0.0 0.00 0.00 0.00 65 1016.9
20260905150825 93 193 0.0 0.0 0.00 0.00 0.00 68 1016.9
20260905150320 93 194 0.0 0.0 0.00 0.00 0.00 66 1017.1
20260905145817 94 195 0.0 0.0 0.00 0.00 0.00 66 1016.8
20260905145316 93 194 0.0 0.0 0.00 0.00 0.00 72 1016.7
20260905144815 90 194 0.0 0.0 0.00 0.00 0.00 69 1017.1
20260905144312 90 196 0.0 0.0 0.00 0.00 0.00 76 1016.9